EHI
0 0 0 0 0 0 0 0 0 0 0 0 0 0 0 0 0 0 0 0 0 0 0 0 0 0 0 0 0 0 0 1 2 3 2 1 2 5 5 3 1 0 0
0 0 0 0 0 0 0 0 0 0 0 0 0 0 0 0 0 0 0 0 0 0 0 0 0 0 0 0 0 0 0 1 2 2 2 1 1 3 5 4 2 1 0
0 0 0 0 0 0 0 0 0 0 0 0 0 0 0 0 0 0 0 0 0 0 0 0 0 0 0 0 0 0 0 0 1 2 2 1 0 1 3 5 4 3 1
0 0 0 0 0 0 0 0 0 0 0 0 0 0 0 0 0 0 0 0 0 0 0 0 0 0 0 0 0 0 0 0 0 1 2 1 1 1 2 3 4 4 4
0 0 0 0 0 0 0 0 0 0 0 0 0 0 0 0 0 0 0 0 0 0 0 0 0 0 0 0 0 0 0 0 0 0 1 1 1 2 2 2 3 4 4
0 0 0 0 0 0 0 0 0 0 0 0 0 0 0 0 0 0 0 0 0 0 0 0 0 0 0 0 0 0 0 0 0 0 0 0 1 1 2 2 2 2 3
0 0 0 0 0 0 0 0 0 0 0 0 0 0 0 0 0 0 0 0 0 0 0 0 0 0 0 0 0 0 0 0 0 0 0 0 0 0 1 2 2 1 2
0 0 0 0 0 0 0 0 0 0 0 0 0 0 0 0 0 0 0 0 0 0 0 0 0 0 0 0 0 0 0 0 0 0 0 0 0 0 0 1 1 0 1
0 0 0 0 0 0 0 0 0 0 0 0 0 0 0 0 0 0 0 0 0 0 0 0 0 0 0 0 0 0 0 0 0 0 0 0 0 0 0 0 0 0 0
0 0 0 0 0 0 0 0 0 0 0 0 0 0 0 0 0 0 0 0 0 0 0 0 0 0 0 0 0 0 0 0 0 0 0 0 0 0 0 0 0 0 0
0 0 0 0 0 0 0 0 0 0 0 0 0 0 0 0 0 0 0 0 0 0 0 0 0 0 0 0 0 0 0 0 0 0 0 0 0 0 0 0 0 0 0
0 0 0 0 0 0 0 0 0 0 0 0 0 0 0 0 0 0 0 0 0 0 0 0 0 0 0 0 0 0 0 0 0 0 0 0 0 0 0 0 0 0 0
0 0 0 0 0 0 0 0 0 0 0 0 0 0 0 0 0 0 0 0 0 0 0 0 0 0 0 0 0 0 0 0 0 0 0 0 0 0 0 0 0 0 0
0 0 0 0 0 0 0 0 0 0 0 0 0 0 0 0 0 0 0 0 0 0 0 0 0 0 0 0 0 0 0 0 0 0 0 0 0 0 0 0 0 0 0
0 0 0 0 0 0 0 0 0 0 0 0 0 0 0 0 0 0 0 0 0 0 0 0 0 0 0 0 0 0 0 0 0 0 0 0 0 0 0 0 0 0 0
0 0 0 0 0 0 0 0 0 0 0 0 0 0 0 0 0 0 0 0 0 0 0 0 0 0 0 0 0 0 0 0 0 0 0 0 0 0 0 0 0 0 0
0 0 0 0 0 0 0 0 0 0 0 0 0 0 0 0 0 0 0 0 0 0 0 0 0 0 0 0 0 0 0 0 0 0 0 0 0 0 0 0 0 0 0
0 0 0 0 0 0 0 0 0 0 0 0 0 0 0 0 0 0 0 0 0 0 0 0 0 0 0 0 0 0 0 0 0 0 0 0 0 0 0 0 0 0 0
0 0 0 0 0 0 0 0 0 0 0 0 0 0 0 0 0 0 0 0 0 0 0 0 0 0 0 0 0 0 0 0 0 0 0 0 0 0 0 0 0 0 0
0 0 0 0 0 0 0 0 0 0 0 0 0 0 0 0 0 0 0 0 0 0 0 0 0 0 0 0 0 0 0 0 0 0 0 0 0 0 0 0 0 0 0
0 0 0 0 0 0 0 0 0 0 0 0 0 0 0 0 0 0 0 0 0 0 0 0 0 0 0 0 0 0 0 0 0 0 0 0 0 0 0 0 0 0 0
0 0 0 0 0 0 0 0 0 0 0 0 0 0 0 0 0 0 0 0 0 0 0 0 0 0 0 0 0 0 0 0 0 0 0 0 0 0 0 0 0 0 0
0 0 0 0 0 0 0 0 0 0 0 0 0 0 0 0 0 0 0 0 0 0 0 0 0 0 0 0 0 0 0 0 0 0 0 0 0 0 0 0 0 0 0
0 0 0 0 0 0 0 0 0 0 0 0 0 0 0 0 0 0 0 0 0 0 0 0 0 0 0 0 0 0 0 0 0 0 0 0 0 0 0 0 0 0 0
0 0 0 0 0 0 0 0 0 0 0 0 0 0 0 0 0 0 0 0 0 0 0 0 0 0 0 0 0 0 0 0 0 0 0 0 0 0 0 0 0 0 0
0 0 0 0 0 0 0 0 0 0 0 0 0 0 0 0 0 0 0 0 0 0 0 0 0 0 0 0 0 0 0 0 0 0 0 0 0 0 0 0 0 0 0
Wind_Speed
1 1 1 1 2 2 2 2 2 3 2 2 2 2 3 3 3 2 1 3 5 7 9 10 10 10 10 10 10 10 9 10 9 9 9 9 10 10 10 11 10 12 11
1 1 1 1 2 2 2 2 3 3 2 2 3 3 3 3 3 2 2 3 5 7 9 11 11 11 12 12 11 11 11 11 11 10 10 10 10 11 11 11 11 12 12
1 1 1 1 2 2 3 2 3 3 3 3 3 3 3 3 3 3 3 2 3 5 8 10 11 12 13 13 13 13 12 12 12 12 11 10 11 11 12 12 12 13 13
1 1 1 1 2 2 2 2 2 2 3 3 3 3 3 3 4 4 3 3 2 3 5 9 11 12 13 14 14 14 13 13 13 13 12 12 11 12 13 14 13 12 14
1 0 1 1 1 1 2 3 2 2 3 4 4 3 3 3 4 4 4 4 3 3 3 6 9 11 13 14 14 15 15 14 14 14 13 13 13 13 14 14 15 14 14
0 1 1 1 1 1 2 2 3 2 2 3 5 4 4 4 3 3 4 3 3 4 4 4 4 6 12 14 15 15 15 15 15 15 14 14 14 15 15 15 15 16 16
0 0 1 1 1 1 2 2 2 3 3 3 3 4 4 4 4 2 3 3 4 4 4 4 4 4 5 11 13 15 15 15 15 16 16 15 15 16 16 15 16 16 16
1 1 1 1 1 1 2 2 2 2 2 2 2 3 4 4 2 3 3 4 4 3 4 5 5 5 4 3 7 13 15 16 16 15 16 16 16 17 16 16 16 17 16
2 1 2 1 2 1 2 2 2 2 3 3 1 1 2 4 4 3 3 4 3 3 4 4 5 5 5 4 4 8 13 16 16 17 15 17 17 17 17 17 17 17 16
2 2 2 2 2 2 2 3 2 2 2 3 3 2 3 3 3 5 3 3 4 5 5 5 5 6 5 4 6 10 12 14 16 16 16 16 17 17 18 17 17 17 16
3 3 2 2 2 2 3 3 3 3 2 3 3 3 4 3 4 5 7 5 4 4 5 5 5 5 5 4 4 8 12 13 15 16 16 16 17 18 17 18 17 16 16
2 3 3 2 2 2 3 3 3 4 3 4 4 3 3 3 3 4 6 8 7 5 5 5 4 5 4 4 7 11 13 14 15 16 16 16 17 18 17 17 17 16 16
2 3 3 2 3 3 3 3 4 4 4 5 4 4 4 4 4 4 6 7 9 7 5 5 4 4 5 4 5 10 12 14 14 15 15 15 15 17 17 17 16 16 16
3 3 3 3 4 4 4 4 4 4 4 4 6 5 4 4 4 4 5 6 9 8 6 6 4 4 4 4 6 9 7 13 14 14 14 14 15 16 17 16 16 15 15
2 2 3 3 4 4 4 4 4 5 4 4 5 5 5 4 4 4 4 4 6 9 10 6 4 4 4 4 7 6 6 11 14 14 14 14 14 16 16 15 15 15 15
2 2 3 3 4 4 4 4 4 4 5 5 4 5 5 4 4 4 4 5 5 7 10 7 6 6 6 7 10 7 7 13 15 15 15 14 14 15 15 14 14 14 14
2 3 3 3 4 4 4 4 5 5 5 6 5 6 6 5 4 4 4 4 5 5 9 9 6 6 7 7 7 6 6 6 7 13 14 13 13 13 14 14 13 14 14
2 3 3 4 4 4 4 5 6 5 6 6 6 6 7 6 6 5 4 5 5 5 7 11 9 7 8 7 7 7 7 7 6 11 13 13 12 12 13 13 12 13 13
3 3 3 4 4 4 4 5 5 5 6 6 6 7 7 6 7 6 5 6 5 6 6 8 9 7 6 6 7 7 7 6 6 8 10 11 11 11 12 11 11 11 10
3 3 3 4 4 5 5 5 5 5 6 6 6 7 7 7 8 7 6 7 6 7 6 7 8 7 7 6 5 6 6 4 5 6 7 7 9 9 9 9 9 8 7
3 3 3 4 4 4 4 4 4 5 6 6 7 7 7 9 10 9 7 6 6 6 6 7 8 8 7 6 5 5 6 5 5 4 4 4 4 3 3 5 5 4 5
3 2 3 4 4 5 7 8 7 5 6 6 7 7 7 7 9 12 14 13 11 9 8 7 7 8 8 7 5 5 5 5 5 3 3 4 2 2 2 1 2 3 3
2 3 3 4 5 6 8 9 10 6 6 6 6 6 6 6 9 6 9 12 11 14 13 10 9 9 8 7 6 7 6 6 6 4 3 4 2 2 2 1 1 2 3
2 3 4 4 4 6 9 10 10 6 5 6 6 6 6 6 7 8 7 7 7 8 9 8 7 8 7 7 6 6 6 5 5 3 2 3 3 2 2 1 1 2 2
3 3 3 4 4 5 8 10 10 5 5 6 7 6 6 6 10 12 8 7 8 7 8 10 9 9 9 9 7 4 4 4 4 3 2 1 2 2 2 2 3 4 2
3 3 4 4 4 4 7 10 10 4 5 6 6 6 8 9 11 12 7 6 7 7 6 6 6 6 5 5 7 4 3 3 3 3 2 1 1 1 2 2 2 3 2
Wind_Direction
14 4 357 355 349 339 336 327 325 321 310 299 286 284 278 281 272 264 234 242 259 272 278 276 272 270 268 269 267 264 259 256 256 254 252 249 245 245 246 244 246 239 240
25 14 1 353 345 331 324 325 328 319 306 296 285 281 278 282 277 270 248 245 257 269 276 277 276 275 272 269 268 264 259 257 254 254 253 252 251 248 247 248 247 243 240
24 9 360 347 331 324 326 326 326 323 319 313 298 289 279 278 280 268 259 246 249 263 273 277 278 277 275 274 274 268 262 259 256 253 252 253 251 253 251 250 250 248 243
21 356 347 331 328 331 332 327 332 332 323 312 299 285 277 273 276 271 259 249 244 253 271 277 278 278 280 279 277 273 266 264 258 254 253 253 254 253 256 252 249 253 248
342 345 313 301 325 332 328 322 333 328 317 311 297 284 273 267 267 273 267 250 241 240 246 269 277 281 282 281 281 277 273 269 263 258 255 254 254 256 256 256 252 251 253
332 334 310 313 327 330 322 322 321 321 308 302 302 297 279 269 265 258 260 262 255 251 249 254 258 270 276 280 280 277 275 272 265 261 257 255 254 255 256 256 256 254 254
234 283 305 308 309 297 294 303 308 310 310 316 313 306 288 268 261 259 271 271 263 261 257 255 251 248 261 270 276 279 277 275 270 266 261 256 256 256 257 257 259 258 257
241 256 259 272 282 287 300 302 302 303 308 331 314 313 313 310 300 292 274 259 258 266 268 268 263 258 257 254 265 274 277 277 275 271 267 261 258 257 257 257 259 259 259
229 245 258 267 282 279 277 285 289 295 297 303 300 282 294 291 306 273 262 267 264 266 268 271 268 263 261 259 260 267 272 274 274 271 272 267 260 259 257 258 258 258 257
235 237 246 253 265 271 275 277 285 276 272 283 288 261 253 270 291 301 291 275 281 278 270 275 272 266 259 256 259 268 273 278 275 273 272 274 266 263 261 260 259 258 256
231 236 241 246 260 265 269 275 278 274 262 261 266 273 275 275 263 274 290 291 283 269 266 265 265 265 262 260 257 265 270 273 275 274 272 273 275 269 265 263 262 260 259
238 237 240 239 254 262 264 265 264 265 264 264 263 260 261 260 263 267 280 291 293 286 276 270 266 267 267 263 263 273 272 273 275 275 272 272 277 274 267 267 265 264 262
254 242 247 248 257 263 263 262 262 261 260 261 260 260 261 261 263 266 275 286 289 288 278 266 256 261 270 264 266 272 271 273 275 276 274 273 275 278 271 269 269 268 265
246 246 248 251 254 260 268 264 264 259 262 260 265 263 266 264 261 259 265 280 290 291 280 272 266 253 263 262 267 274 276 280 276 276 275 276 277 278 272 269 270 270 267
255 253 251 254 259 260 261 262 260 264 266 263 261 260 263 264 259 258 259 257 270 289 292 289 290 276 276 271 268 269 268 279 282 279 275 274 275 276 268 266 268 269 268
252 256 266 260 264 267 265 264 267 268 266 263 260 263 265 268 264 260 259 256 252 264 280 289 292 293 291 288 283 278 272 281 281 280 278 273 272 272 269 265 265 266 265
251 256 261 264 265 266 267 267 270 273 273 273 273 272 272 271 268 266 264 260 257 258 274 286 286 292 288 285 288 281 274 271 271 276 280 277 275 272 268 264 264 265 264
257 257 264 267 267 269 267 267 274 278 274 273 274 274 275 278 273 270 267 264 264 262 268 282 289 292 286 282 284 284 284 280 273 276 278 278 278 273 267 262 260 261 264
264 265 267 266 270 269 267 267 271 276 274 271 270 271 275 275 276 273 270 269 269 271 269 277 286 288 288 287 286 286 281 279 278 276 276 276 277 275 266 262 258 260 261
254 262 268 271 274 274 270 273 277 277 274 274 270 269 272 270 270 270 270 265 268 271 272 277 283 288 287 288 284 286 287 282 285 287 286 284 284 281 270 266 260 255 248
260 261 270 274 275 276 277 287 288 288 283 283 280 273 271 274 277 276 278 273 272 275 277 278 282 287 286 288 283 283 286 292 290 283 288 287 286 278 268 262 253 235 234
267 270 274 279 282 286 296 300 301 295 290 288 289 286 280 279 282 284 285 285 282 281 279 276 279 282 284 284 289 286 287 292 295 294 290 292 294 289 288 255 216 229 238
266 275 275 277 282 290 301 303 302 301 293 292 291 293 294 292 294 285 288 291 289 287 283 277 275 276 280 282 283 282 282 285 284 291 299 294 300 297 296 304 247 248 262
278 279 278 278 285 294 305 308 309 305 294 292 290 288 288 292 293 295 292 292 291 291 288 283 276 279 283 283 274 271 274 286 289 298 301 289 308 308 316 333 329 295 283
297 294 292 288 287 296 311 315 317 307 303 302 297 296 297 294 299 303 300 295 297 296 296 290 288 288 291 296 291 283 278 283 292 301 324 282 293 318 326 330 340 347 328
297 301 301 297 296 300 312 316 319 308 306 305 302 298 301 304 306 309 302 296 296 299 302 303 307 314 313 314 311 289 271 267 280 293 302 300 288 326 346 349 356 353 348